| time (UTC) | temp C | wind direction | speed KPH | gust KPH | rain 1hr cm | rain 24hr cm | rain mn cm | humidity % | barometer mb |
| 20260509180032 | 11 | 295 | 14.5 | 29.0 | 0.00 | 0.00 | 0.43 | 50 | 1011.9 |
| 20260509175531 | 11 | 313 | 14.5 | 29.0 | 0.00 | 0.00 | 0.43 | 50 | 1012.0 |
| 20260509175033 | 11 | 338 | 12.9 | 32.2 | 0.00 | 0.00 | 0.43 | 49 | 1011.9 |
| 20260509174535 | 11 | 302 | 19.3 | 35.4 | 0.00 | 0.00 | 0.43 | 49 | 1011.9 |
| 20260509174029 | 11 | 324 | 14.5 | 30.6 | 0.00 | 0.00 | 0.43 | 50 | 1011.9 |
| 20260509173529 | 11 | 327 | 9.7 | 33.8 | 0.00 | 0.00 | 0.43 | 50 | 1011.9 |
| 20260509173029 | 11 | 312 | 16.1 | 37.0 | 0.00 | 0.00 | 0.43 | 50 | 1011.9 |
| 20260509172527 | 11 | 338 | 14.5 | 37.0 | 0.00 | 0.00 | 0.43 | 51 | 1011.9 |
| 20260509172027 | 10 | 333 | 14.5 | 32.2 | 0.00 | 0.00 | 0.43 | 52 | 1011.8 |
| 20260509171531 | 10 | 322 | 16.1 | 32.2 | 0.00 | 0.00 | 0.43 | 51 | 1011.9 |
| 20260509171025 | 10 | 297 | 14.5 | 32.2 | 0.00 | 0.00 | 0.43 | 52 | 1011.9 |
| 20260509170525 | 10 | 311 | 16.1 | 32.2 | 0.00 | 0.00 | 0.43 | 51 | 1011.9 |
| 20260509170025 | 10 | 342 | 14.5 | 27.4 | 0.00 | 0.00 | 0.43 | 52 | 1011.8 |
| 20260509165527 | 10 | 262 | 6.4 | 25.7 | 0.00 | 0.00 | 0.43 | 53 | 1011.7 |
| 20260509165023 | 10 | 288 | 14.5 | 27.4 | 0.00 | 0.00 | 0.43 | 54 | 1011.7 |
| 20260509164523 | 10 | 300 | 16.1 | 27.4 | 0.00 | 0.00 | 0.43 | 54 | 1011.8 |
| 20260509164021 | 10 | 350 | 12.9 | 24.1 | 0.00 | 0.00 | 0.43 | 54 | 1011.7 |
| 20260509163529 | 10 | 304 | 11.3 | 32.2 | 0.00 | 0.00 | 0.43 | 54 | 1011.6 |
| 20260509163023 | 10 | 342 | 16.1 | 32.2 | 0.00 | 0.00 | 0.43 | 52 | 1011.6 |
| 20260509162519 | 10 | 347 | 14.5 | 29.0 | 0.00 | 0.00 | 0.43 | 53 | 1011.6 |
| 20260509162019 | 10 | 36 | 14.5 | 29.0 | 0.00 | 0.00 | 0.43 | 54 | 1011.5 |
| 20260509161517 | 10 | 302 | 17.7 | 29.0 | 0.00 | 0.00 | 0.43 | 51 | 1011.5 |
| 20260509161016 | 10 | 296 | 11.3 | 27.4 | 0.00 | 0.00 | 0.43 | 55 | 1011.4 |
| 20260509160516 | 9 | 355 | 16.1 | 27.4 | 0.00 | 0.00 | 0.43 | 53 | 1011.3 |
| 20260509160015 | 9 | 355 | 17.7 | 33.8 | 0.00 | 0.00 | 0.43 | 54 | 1011.5 |
| 20260509155514 | 10 | 324 | 17.7 | 29.0 | 0.00 | 0.00 | 0.43 | 53 | 1011.2 |
| 20260509155013 | 9 | 340 | 12.9 | 27.4 | 0.00 | 0.00 | 0.43 | 52 | 1011.2 |
| 20260509154515 | 9 | 350 | 11.3 | 32.2 | 0.00 | 0.00 | 0.43 | 54 | 1011.2 |
| 20260509154011 | 9 | 229 | 11.3 | 32.2 | 0.00 | 0.00 | 0.43 | 55 | 1011.1 |
| 20260509153509 | 9 | 355 | 14.5 | 29.0 | 0.00 | 0.00 | 0.43 | 54 | 1011.1 |
| 20260509153020 | 9 | 288 | 11.3 | 33.8 | 0.00 | 0.00 | 0.43 | 54 | 1011.1 |
| 20260509152507 | 9 | 318 | 16.1 | 33.8 | 0.00 | 0.00 | 0.43 | 54 | 1010.9 |
| 20260509152008 | 8 | 315 | 12.9 | 30.6 | 0.00 | 0.00 | 0.43 | 55 | 1010.8 |
| 20260509151504 | 8 | 333 | 11.3 | 29.0 | 0.00 | 0.00 | 0.43 | 56 | 1010.8 |
| 20260509151002 | 8 | 334 | 14.5 | 27.4 | 0.00 | 0.00 | 0.43 | 57 | 1010.8 |
| 20260509150501 | 8 | 325 | 17.7 | 27.4 | 0.00 | 0.00 | 0.43 | 57 | 1010.7 |
| 20260509150100 | 8 | 12 | 14.5 | 27.4 | 0.00 | 0.00 | 0.43 | 57 | 1010.7 |
| 20260509145559 | 8 | 335 | 14.5 | 27.4 | 0.00 | 0.00 | 0.43 | 56 | 1010.6 |
| 20260509145058 | 8 | 5 | 16.1 | 32.2 | 0.00 | 0.00 | 0.43 | 57 | 1010.6 |
| 20260509144608 | 8 | 347 | 16.1 | 32.2 | 0.00 | 0.00 | 0.43 | 56 | 1010.6 |
| 20260509144057 | 8 | 315 | 12.9 | 29.0 | 0.00 | 0.00 | 0.43 | 58 | 1010.5 |
| 20260509143553 | 8 | 327 | 9.7 | 30.6 | 0.00 | 0.00 | 0.43 | 61 | 1010.5 |
| 20260509143116 | 7 | 320 | 16.1 | 32.2 | 0.00 | 0.00 | 0.43 | 59 | 1010.3 |
| 20260509142550 | 7 | 332 | 19.3 | 32.2 | 0.00 | 0.00 | 0.43 | 59 | 1010.3 |
| 20260509142050 | 7 | 53 | 12.9 | 25.7 | 0.00 | 0.00 | 0.43 | 60 | 1010.1 |
| 20260509141547 | 7 | 315 | 12.9 | 37.0 | 0.00 | 0.00 | 0.43 | 61 | 1010.1 |
| 20260509141047 | 7 | 325 | 17.7 | 37.0 | 0.00 | 0.00 | 0.43 | 59 | 1010.2 |
| 20260509140547 | 7 | 278 | 11.3 | 29.0 | 0.00 | 0.00 | 0.43 | 62 | 1010.1 |
| 20260509140049 | 6 | 321 | 17.7 | 29.0 | 0.00 | 0.00 | 0.43 | 61 | 1010.1 |
| 20260509135546 | 7 | 318 | 11.3 | 27.4 | 0.00 | 0.00 | 0.43 | 61 | 1010.1 |
| 20260509135046 | 7 | 22 | 12.9 | 25.7 | 0.00 | 0.00 | 0.43 | 62 | 1010.0 |
| 20260509134600 | 6 | 5 | 9.7 | 35.4 | 0.00 | 0.00 | 0.43 | 62 | 1009.9 |
| 20260509134041 | 6 | 42 | 17.7 | 35.4 | 0.00 | 0.00 | 0.43 | 62 | 1009.8 |
| 20260509133540 | 6 | 347 | 12.9 | 33.8 | 0.00 | 0.00 | 0.43 | 63 | 1009.7 |
| 20260509133045 | 6 | 286 | 12.9 | 33.8 | 0.00 | 0.00 | 0.43 | 63 | 1009.7 |
| 20260509132538 | 6 | 346 | 12.9 | 38.6 | 0.00 | 0.00 | 0.43 | 64 | 1009.5 |
| 20260509132041 | 6 | 39 | 11.3 | 29.0 | 0.00 | 0.00 | 0.43 | 64 | 1009.5 |
| 20260509131538 | 6 | 355 | 14.5 | 33.8 | 0.00 | 0.00 | 0.43 | 64 | 1009.3 |
| 20260509131035 | 6 | 26 | 11.3 | 33.8 | 0.00 | 0.00 | 0.43 | 65 | 1009.3 |
| 20260509130539 | 6 | 304 | 12.9 | 30.6 | 0.00 | 0.00 | 0.43 | 64 | 1009.2 |
| 20260509130046 | 6 | 331 | 17.7 | 30.6 | 0.00 | 0.00 | 0.43 | 65 | 1009.2 |
| 20260509125535 | 6 | 329 | 17.7 | 29.0 | 0.00 | 0.00 | 0.43 | 65 | 1009.1 |
| 20260509125032 | 6 | 5 | 11.3 | 29.0 | 0.00 | 0.00 | 0.43 | 65 | 1009.0 |
| 20260509124535 | 6 | 337 | 12.9 | 25.7 | 0.00 | 0.00 | 0.43 | 66 | 1009.0 |
| 20260509124032 | 5 | 319 | 9.7 | 25.7 | 0.00 | 0.00 | 0.43 | 68 | 1008.8 |
| 20260509123531 | 5 | 336 | 11.3 | 25.7 | 0.00 | 0.00 | 0.43 | 67 | 1008.8 |
| 20260509123031 | 5 | 325 | 9.7 | 27.4 | 0.00 | 0.00 | 0.43 | 68 | 1008.7 |
| 20260509122530 | 5 | 19 | 16.1 | 27.4 | 0.00 | 0.00 | 0.43 | 69 | 1008.6 |
| 20260509122028 | 5 | 26 | 9.7 | 22.5 | 0.00 | 0.00 | 0.43 | 70 | 1008.5 |
| 20260509121540 | 5 | 349 | 11.3 | 25.7 | 0.00 | 0.00 | 0.43 | 70 | 1008.4 |
| 20260509121027 | 5 | 13 | 11.3 | 25.7 | 0.00 | 0.00 | 0.43 | 71 | 1008.3 |
| 20260509120529 | 5 | 323 | 12.9 | 25.7 | 0.00 | 0.00 | 0.00 | 71 | 1008.3 |
| 20260509120025 | 5 | 355 | 11.3 | 27.4 | 0.00 | 0.00 | 0.00 | 72 | 1008.1 |
| 20260509115523 | 5 | 325 | 12.9 | 24.1 | 0.00 | 0.00 | 0.00 | 73 | 1008.1 |
| 20260509115022 | 5 | 46 | 9.7 | 27.4 | 0.00 | 0.00 | 0.00 | 73 | 1008.0 |
| 20260509114531 | 5 | 10 | 12.9 | 27.4 | 0.00 | 0.00 | 0.00 | 74 | 1007.8 |
| 20260509114021 | 5 | 336 | 11.3 | 24.1 | 0.00 | 0.00 | 0.00 | 75 | 1007.8 |
| 20260509113520 | 5 | 316 | 11.3 | 24.1 | 0.00 | 0.00 | 0.00 | 76 | 1007.6 |
| 20260509113024 | 4 | 333 | 9.7 | 22.5 | 0.00 | 0.00 | 0.00 | 77 | 1007.6 |
| 20260509112517 | 4 | 336 | 11.3 | 24.1 | 0.00 | 0.00 | 0.00 | 78 | 1007.4 |
| 20260509112023 | 4 | 336 | 11.3 | 24.1 | 0.00 | 0.00 | 0.00 | 78 | 1007.3 |
| 20260509111515 | 4 | 321 | 9.7 | 19.3 | 0.00 | 0.00 | 0.00 | 79 | 1007.2 |
| 20260509111014 | 4 | 311 | 9.7 | 19.3 | 0.00 | 0.00 | 0.00 | 79 | 1007.1 |
| 20260509110512 | 4 | 338 | 9.7 | 19.3 | 0.00 | 0.00 | 0.00 | 79 | 1007.0 |
| 20260509110011 | 4 | 328 | 9.7 | 20.9 | 0.00 | 0.00 | 0.00 | 79 | 1006.9 |
| 20260509105512 | 4 | 320 | 12.9 | 24.1 | 0.00 | 0.00 | 0.00 | 79 | 1006.8 |
| 20260509105009 | 4 | 348 | 11.3 | 24.1 | 0.00 | 0.00 | 0.00 | 80 | 1006.7 |
| 20260509104511 | 4 | 329 | 12.9 | 24.1 | 0.00 | 0.00 | 0.00 | 81 | 1006.5 |
| 20260509104007 | 4 | 334 | 11.3 | 24.1 | 0.00 | 0.00 | 0.00 | 82 | 1006.3 |
| 20260509103507 | 5 | 304 | 12.9 | 22.5 | 0.00 | 0.00 | 0.00 | 82 | 1006.3 |
| 20260509103005 | 5 | 332 | 11.3 | 22.5 | 0.00 | 0.00 | 0.00 | 83 | 1006.3 |
| 20260509102505 | 5 | 338 | 11.3 | 22.5 | 0.00 | 0.00 | 0.00 | 83 | 1006.3 |
| 20260509102105 | 5 | 342 | 8.0 | 22.5 | 0.00 | 0.00 | 0.00 | 84 | 1006.2 |
| 20260509101504 | 5 | 309 | 11.3 | 22.5 | 0.00 | 0.00 | 0.00 | 87 | 1006.0 |
| 20260509101100 | 5 | 336 | 16.1 | 22.5 | 0.00 | 0.00 | 0.00 | 89 | 1005.9 |
| 20260509100559 | 5 | 267 | 6.4 | 16.1 | 0.00 | 0.00 | 0.00 | 90 | 1005.9 |
| 20260509100059 | 5 | 277 | 6.4 | 16.1 | 0.00 | 0.00 | 0.00 | 90 | 1005.7 |
| 20260509095558 | 5 | 317 | 4.8 | 12.9 | 0.00 | 0.00 | 0.00 | 90 | 1005.7 |
| 20260509095057 | 5 | 279 | 6.4 | 17.7 | 0.00 | 0.00 | 0.00 | 90 | 1005.7 |
| 20260509094603 | 5 | 304 | 8.0 | 17.7 | 0.00 | 0.00 | 0.00 | 90 | 1005.6 |
| 20260509094055 | 5 | 275 | 8.0 | 17.7 | 0.00 | 0.00 | 0.00 | 90 | 1005.5 |
| 20260509093554 | 5 | 326 | 8.0 | 17.7 | 0.00 | 0.00 | 0.00 | 90 | 1005.5 |
| 20260509093103 | 5 | 290 | 6.4 | 14.5 | 0.00 | 0.00 | 0.00 | 90 | 1005.4 |
| 20260509092551 | 5 | 313 | 4.8 | 14.5 | 0.00 | 0.00 | 0.00 | 89 | 1005.2 |
| 20260509092050 | 6 | 321 | 1.6 | 12.9 | 0.00 | 0.00 | 0.00 | 89 | 1005.2 |
| 20260509091548 | 6 | 296 | 3.2 | 12.9 | 0.00 | 0.00 | 0.00 | 89 | 1005.1 |
| 20260509091048 | 6 | 355 | 0.0 | 8.0 | 0.00 | 0.00 | 0.00 | 88 | 1005.0 |
| 20260509090547 | 6 | 325 | 1.6 | 12.9 | 0.00 | 0.00 | 0.00 | 87 | 1005.0 |
| 20260509090050 | 6 | 329 | 4.8 | 12.9 | 0.00 | 0.00 | 0.00 | 87 | 1004.9 |
| 20260509085545 | 6 | 293 | 3.2 | 9.7 | 0.00 | 0.00 | 0.00 | 87 | 1004.8 |
| 20260509085044 | 6 | 316 | 3.2 | 9.7 | 0.00 | 0.00 | 0.00 | 87 | 1004.7 |
| 20260509084546 | 6 | 326 | 6.4 | 9.7 | 0.00 | 0.00 | 0.00 | 87 | 1004.6 |
| 20260509084045 | 6 | 328 | 4.8 | 9.7 | 0.00 | 0.00 | 0.00 | 87 | 1004.4 |
| 20260509083543 | 6 | 326 | 4.8 | 8.0 | 0.00 | 0.00 | 0.00 | 87 | 1004.2 |
| 20260509083042 | 6 | 351 | 3.2 | 9.7 | 0.00 | 0.00 | 0.00 | 87 | 1004.2 |
| 20260509082540 | 6 | 338 | 4.8 | 9.7 | 0.00 | 0.00 | 0.00 | 86 | 1004.1 |
| 20260509082039 | 6 | 344 | 3.2 | 12.9 | 0.00 | 0.00 | 0.00 | 86 | 1004.0 |
| 20260509081542 | 6 | 343 | 4.8 | 12.9 | 0.00 | 0.00 | 0.00 | 86 | 1004.0 |
| 20260509081037 | 6 | 355 | 3.2 | 9.7 | 0.00 | 0.00 | 0.00 | 86 | 1004.0 |
| 20260509080537 | 7 | 9 | 4.8 | 12.9 | 0.00 | 0.00 | 0.00 | 86 | 1003.9 |
| 20260509080037 | 7 | 340 | 4.8 | 16.1 | 0.00 | 0.00 | 0.00 | 85 | 1003.9 |
| 20260509075535 | 7 | 355 | 6.4 | 17.7 | 0.00 | 0.00 | 0.00 | 85 | 1003.9 |
| 20260509075035 | 7 | 20 | 4.8 | 14.5 | 0.00 | 0.00 | 0.00 | 85 | 1003.9 |
| 20260509074543 | 7 | 22 | 6.4 | 14.5 | 0.00 | 0.00 | 0.00 | 86 | 1003.9 |
| 20260509074033 | 7 | 327 | 6.4 | 19.3 | 0.00 | 0.00 | 0.00 | 86 | 1003.9 |
| 20260509073533 | 7 | 347 | 6.4 | 16.1 | 0.00 | 0.00 | 0.00 | 86 | 1003.9 |
| 20260509073031 | 7 | 349 | 6.4 | 17.7 | 0.00 | 0.00 | 0.00 | 87 | 1003.9 |
| 20260509072530 | 7 | 12 | 6.4 | 19.3 | 0.00 | 0.00 | 0.00 | 87 | 1003.8 |
| 20260509072029 | 7 | 355 | 9.7 | 24.1 | 0.00 | 0.00 | 0.00 | 88 | 1003.9 |
| 20260509071527 | 7 | 59 | 11.3 | 24.1 | 0.00 | 0.00 | 0.00 | 89 | 1003.7 |
| 20260509071026 | 7 | 355 | 9.7 | 24.1 | 0.00 | 0.00 | 0.00 | 90 | 1003.8 |
| 20260509070525 | 7 | 314 | 8.0 | 24.1 | 0.00 | 0.00 | 0.00 | 90 | 1003.8 |
| 20260509070025 | 8 | 340 | 8.0 | 19.3 | 0.00 | 0.00 | 0.00 | 90 | 1003.7 |
| 20260509065525 | 8 | 355 | 11.3 | 19.3 | 0.00 | 0.00 | 0.00 | 90 | 1003.7 |
| 20260509065027 | 8 | 338 | 6.4 | 16.1 | 0.00 | 0.00 | 0.00 | 90 | 1003.7 |
| 20260509064523 | 8 | 346 | 6.4 | 19.3 | 0.00 | 0.00 | 0.00 | 90 | 1003.6 |
| 20260509064027 | 8 | 347 | 8.0 | 19.3 | 0.00 | 0.00 | 0.00 | 90 | 1003.6 |
| 20260509063522 | 8 | 325 | 6.4 | 14.5 | 0.00 | 0.00 | 0.00 | 90 | 1003.5 |
| 20260509063027 | 8 | 302 | 6.4 | 16.1 | 0.00 | 0.00 | 0.00 | 90 | 1003.5 |
| 20260509062521 | 8 | 338 | 6.4 | 16.1 | 0.00 | 0.00 | 0.00 | 90 | 1003.4 |
| 20260509062022 | 8 | 342 | 3.2 | 6.4 | 0.00 | 0.00 | 0.00 | 90 | 1003.3 |
| 20260509061518 | 8 | 336 | 1.6 | 6.4 | 0.00 | 0.00 | 0.00 | 90 | 1003.2 |
| 20260509061030 | 8 | 355 | 3.2 | 6.4 | 0.00 | 0.00 | 0.00 | 90 | 1002.9 |
| 20260509060517 | 8 | 333 | 0.0 | 6.4 | 0.00 | 0.00 | 0.00 | 90 | 1002.8 |
| 20260509060019 | 8 | 344 | 0.0 | 8.0 | 0.00 | 0.00 | 0.00 | 90 | 1002.9 |
| 20260509055517 | 8 | 342 | 3.2 | 8.0 | 0.00 | 0.00 | 0.00 | 90 | 1002.9 |
| 20260509055018 | 8 | 28 | 0.0 | 6.4 | 0.00 | 0.00 | 0.00 | 89 | 1002.8 |
| 20260509054516 | 8 | 360 | 1.6 | 9.7 | 0.00 | 0.00 | 0.00 | 89 | 1002.9 |
| 20260509054016 | 8 | 5 | 3.2 | 9.7 | 0.00 | 0.00 | 0.00 | 89 | 1002.6 |
| 20260509053516 | 8 | 11 | 4.8 | 9.7 | 0.00 | 0.00 | 0.00 | 89 | 1002.6 |
| 20260509053016 | 8 | 346 | 3.2 | 12.9 | 0.00 | 0.00 | 0.00 | 89 | 1002.8 |
| 20260509052514 | 8 | 360 | 4.8 | 12.9 | 0.00 | 0.00 | 0.00 | 89 | 1002.8 |
| 20260509052014 | 8 | 340 | 3.2 | 12.9 | 0.00 | 0.00 | 0.00 | 89 | 1002.8 |
| 20260509051514 | 8 | 15 | 3.2 | 12.9 | 0.00 | 0.00 | 0.00 | 89 | 1002.8 |
| 20260509051014 | 8 | 5 | 4.8 | 16.1 | 0.00 | 0.00 | 0.00 | 88 | 1002.7 |
| 20260509050512 | 8 | 342 | 6.4 | 17.7 | 0.00 | 0.00 | 0.00 | 88 | 1003.0 |
| 20260509050012 | 8 | 351 | 4.8 | 19.3 | 0.00 | 0.00 | 0.00 | 88 | 1003.0 |
| 20260509045513 | 8 | 340 | 9.7 | 19.3 | 0.00 | 0.00 | 0.00 | 88 | 1003.3 |
| 20260509045010 | 8 | 34 | 9.7 | 20.9 | 0.00 | 0.00 | 0.00 | 89 | 1003.0 |
| 20260509044510 | 8 | 351 | 8.0 | 22.5 | 0.00 | 0.00 | 0.00 | 88 | 1003.3 |
| 20260509044015 | 8 | 344 | 11.3 | 29.0 | 0.00 | 0.00 | 0.00 | 88 | 1003.4 |
| 20260509043510 | 8 | 348 | 12.9 | 32.2 | 0.00 | 0.00 | 0.00 | 88 | 1003.4 |
| 20260509043009 | 8 | 355 | 12.9 | 32.2 | 0.00 | 0.00 | 0.00 | 87 | 1003.6 |
| 20260509042512 | 8 | 331 | 19.3 | 30.6 | 0.00 | 0.00 | 0.00 | 87 | 1003.8 |
| 20260509042014 | 9 | 321 | 16.1 | 33.8 | 0.00 | 0.00 | 0.00 | 86 | 1003.9 |
| 20260509041508 | 9 | 323 | 19.3 | 41.8 | 0.00 | 0.00 | 0.00 | 85 | 1003.9 |
| 20260509041007 | 10 | 341 | 19.3 | 41.8 | 0.00 | 0.00 | 0.00 | 84 | 1003.8 |
| 20260509040508 | 10 | 346 | 20.9 | 35.4 | 0.00 | 0.00 | 0.00 | 85 | 1003.8 |
| 20260509040008 | 10 | 355 | 17.7 | 29.0 | 0.00 | 0.00 | 0.00 | 86 | 1003.5 |
| 20260509035508 | 10 | 338 | 16.1 | 33.8 | 0.00 | 0.00 | 0.00 | 86 | 1003.4 |
| 20260509035008 | 10 | 355 | 16.1 | 33.8 | 0.00 | 0.00 | 0.00 | 86 | 1003.5 |
| 20260509034507 | 10 | 344 | 14.5 | 33.8 | 0.00 | 0.00 | 0.00 | 85 | 1003.5 |
| 20260509034006 | 10 | 323 | 19.3 | 45.1 | 0.00 | 0.00 | 0.00 | 84 | 1003.6 |
| 20260509033506 | 10 | 348 | 20.9 | 45.1 | 0.00 | 0.00 | 0.00 | 82 | 1003.6 |
| 20260509033005 | 11 | 355 | 20.9 | 37.0 | 0.00 | 0.00 | 0.00 | 80 | 1003.7 |
| 20260509032504 | 12 | 331 | 20.9 | 33.8 | 0.00 | 0.00 | 0.00 | 75 | 1003.5 |
| 20260509032002 | 12 | 276 | 17.7 | 33.8 | 0.00 | 0.00 | 0.00 | 73 | 1003.1 |
| 20260509031502 | 13 | 340 | 11.3 | 40.2 | 0.00 | 0.00 | 0.00 | 69 | 1002.8 |
| 20260509031104 | 13 | 278 | 19.3 | 40.2 | 0.00 | 0.00 | 0.00 | 66 | 1002.7 |
| 20260509030600 | 15 | 287 | 16.1 | 35.4 | 0.00 | 0.00 | 0.00 | 60 | 1002.4 |
| 20260509030101 | 15 | 296 | 16.1 | 35.4 | 0.00 | 0.00 | 0.00 | 52 | 1002.2 |
| 20260509025604 | 16 | 308 | 8.0 | 17.7 | 0.00 | 0.00 | 0.00 | 49 | 1001.8 |
| 20260509025058 | 16 | 304 | 6.4 | 16.1 | 0.00 | 0.00 | 0.00 | 47 | 1001.5 |
| 20260509024600 | 16 | 317 | 1.6 | 8.0 | 0.00 | 0.00 | 0.00 | 46 | 1000.9 |
| 20260509024057 | 16 | 279 | 4.8 | 8.0 | 0.00 | 0.00 | 0.00 | 45 | 1000.8 |
| 20260509023558 | 16 | 307 | 0.0 | 1.6 | 0.00 | 0.00 | 0.00 | 44 | 1000.5 |
| 20260509023109 | 16 | 307 | 0.0 | 0.0 | 0.00 | 0.00 | 0.00 | 44 | 1000.3 |
| 20260509022600 | 16 | 307 | 0.0 | 0.0 | 0.00 | 0.00 | 0.00 | 43 | 1000.1 |
| 20260509022056 | 16 | 307 | 0.0 | 1.6 | 0.00 | 0.00 | 0.00 | 43 | 1000.1 |
| 20260509021555 | 16 | 307 | 0.0 | 1.6 | 0.00 | 0.00 | 0.00 | 43 | 1000.2 |
| 20260509021054 | 16 | 307 | 0.0 | 1.6 | 0.00 | 0.00 | 0.00 | 42 | 1000.4 |
| 20260509020553 | 16 | 307 | 0.0 | 6.4 | 0.00 | 0.00 | 0.00 | 42 | 1000.4 |
| 20260509020059 | 16 | 307 | 0.0 | 6.4 | 0.00 | 0.00 | 0.00 | 42 | 1000.5 |
| 20260509015553 | 16 | 293 | 1.6 | 4.8 | 0.00 | 0.00 | 0.00 | 42 | 1000.7 |
| 20260509015055 | 16 | 292 | 0.0 | 4.8 | 0.00 | 0.00 | 0.00 | 42 | 1000.7 |
| 20260509014553 | 16 | 296 | 0.0 | 9.7 | 0.00 | 0.00 | 0.00 | 41 | 1000.8 |
| 20260509014051 | 16 | 296 | 1.6 | 12.9 | 0.00 | 0.00 | 0.00 | 40 | 1000.8 |
| 20260509013551 | 16 | 297 | 1.6 | 12.9 | 0.00 | 0.00 | 0.00 | 40 | 1000.9 |
| 20260509013055 | 17 | 317 | 1.6 | 16.1 | 0.00 | 0.00 | 0.00 | 40 | 1000.9 |
| 20260509012550 | 17 | 295 | 4.8 | 16.1 | 0.00 | 0.00 | 0.00 | 40 | 1000.9 |
| 20260509012050 | 17 | 338 | 4.8 | 16.1 | 0.00 | 0.00 | 0.00 | 39 | 1001.0 |
| 20260509011556 | 17 | 313 | 6.4 | 16.1 | 0.00 | 0.00 | 0.00 | 39 | 1001.0 |
| 20260509011049 | 17 | 284 | 4.8 | 22.5 | 0.00 | 0.00 | 0.00 | 39 | 1001.1 |
| 20260509010549 | 17 | 309 | 11.3 | 22.5 | 0.00 | 0.00 | 0.00 | 38 | 1001.0 |
| 20260509010052 | 17 | 331 | 9.7 | 29.0 | 0.00 | 0.00 | 0.00 | 38 | 1001.0 |
| 20260509005549 | 17 | 247 | 14.5 | 29.0 | 0.00 | 0.00 | 0.00 | 37 | 1001.0 |
| 20260509005047 | 18 | 324 | 14.5 | 25.7 | 0.00 | 0.00 | 0.00 | 37 | 1001.1 |
| 20260509004547 | 18 | 304 | 16.1 | 25.7 | 0.00 | 0.00 | 0.00 | 38 | 1001.2 |
| 20260509004048 | 18 | 320 | 8.0 | 25.7 | 0.00 | 0.00 | 0.00 | 38 | 1001.4 |
| 20260509003548 | 18 | 325 | 11.3 | 25.7 | 0.00 | 0.00 | 0.00 | 37 | 1001.4 |
| 20260509003047 | 18 | 329 | 11.3 | 19.3 | 0.00 | 0.00 | 0.00 | 37 | 1001.4 |
| 20260509002546 | 18 | 281 | 9.7 | 25.7 | 0.00 | 0.00 | 0.00 | 37 | 1001.4 |
| 20260509002046 | 18 | 318 | 11.3 | 25.7 | 0.00 | 0.00 | 0.00 | 37 | 1001.5 |
| 20260509001546 | 18 | 346 | 14.5 | 25.7 | 0.00 | 0.00 | 0.00 | 36 | 1001.5 |
| 20260509001046 | 18 | 281 | 11.3 | 27.4 | 0.00 | 0.00 | 0.00 | 36 | 1001.4 |
| 20260509000546 | 18 | 315 | 14.5 | 30.6 | 0.00 | 0.00 | 0.00 | 35 | 1001.6 |
| 20260509000044 | 18 | 292 | 11.3 | 33.8 | 0.00 | 0.00 | 0.00 | 36 | 1001.5 |
| 20260508235544 | 18 | 302 | 19.3 | 33.8 | 0.00 | 0.00 | 0.00 | 35 | 1001.5 |
| 20260508235043 | 18 | 337 | 17.7 | 33.8 | 0.00 | 0.00 | 0.00 | 35 | 1001.6 |
| 20260508234543 | 18 | 346 | 9.7 | 33.8 | 0.00 | 0.00 | 0.00 | 35 | 1001.6 |
| 20260508234046 | 18 | 290 | 16.1 | 33.8 | 0.00 | 0.00 | 0.00 | 35 | 1001.6 |
| 20260508233542 | 18 | 275 | 16.1 | 30.6 | 0.00 | 0.00 | 0.00 | 34 | 1001.7 |
| 20260508233042 | 18 | 261 | 8.0 | 29.0 | 0.00 | 0.00 | 0.00 | 35 | 1001.8 |
| 20260508232540 | 18 | 315 | 8.0 | 48.3 | 0.00 | 0.00 | 0.00 | 35 | 1001.9 |
| 20260508232040 | 18 | 327 | 16.1 | 48.3 | 0.00 | 0.00 | 0.00 | 35 | 1002.0 |
| 20260508231540 | 18 | 306 | 14.5 | 30.6 | 0.00 | 0.00 | 0.00 | 34 | 1002.1 |
| 20260508231039 | 18 | 329 | 14.5 | 30.6 | 0.00 | 0.00 | 0.00 | 34 | 1002.0 |
| 20260508230538 | 18 | 261 | 14.5 | 32.2 | 0.00 | 0.00 | 0.00 | 34 | 1002.1 |
| 20260508230043 | 18 | 254 | 16.1 | 32.2 | 0.00 | 0.00 | 0.00 | 35 | 1002.1 |
| 20260508225538 | 18 | 325 | 14.5 | 29.0 | 0.00 | 0.00 | 0.00 | 35 | 1002.3 |
| 20260508225038 | 18 | 314 | 9.7 | 27.4 | 0.00 | 0.00 | 0.00 | 34 | 1002.3 |
| 20260508224538 | 18 | 355 | 8.0 | 33.8 | 0.00 | 0.00 | 0.00 | 34 | 1002.3 |
| 20260508224038 | 18 | 319 | 16.1 | 33.8 | 0.00 | 0.00 | 0.00 | 34 | 1002.3 |
| 20260508223537 | 18 | 227 | 12.9 | 32.2 | 0.00 | 0.00 | 0.00 | 34 | 1002.3 |
| 20260508223036 | 18 | 329 | 16.1 | 38.6 | 0.00 | 0.00 | 0.00 | 34 | 1002.5 |
| 20260508222535 | 18 | 298 | 12.9 | 40.2 | 0.00 | 0.00 | 0.00 | 33 | 1002.4 |
| 20260508222035 | 18 | 274 | 25.7 | 40.2 | 0.00 | 0.00 | 0.00 | 33 | 1002.7 |
| 20260508221535 | 18 | 328 | 17.7 | 35.4 | 0.00 | 0.00 | 0.00 | 33 | 1002.6 |
| 20260508221034 | 18 | 296 | 11.3 | 37.0 | 0.00 | 0.00 | 0.00 | 33 | 1002.7 |
| 20260508220533 | 18 | 338 | 19.3 | 37.0 | 0.00 | 0.00 | 0.00 | 34 | 1002.7 |
| 20260508220034 | 17 | 336 | 12.9 | 37.0 | 0.00 | 0.00 | 0.00 | 34 | 1002.8 |
| 20260508215534 | 17 | 284 | 19.3 | 37.0 | 0.00 | 0.00 | 0.00 | 33 | 1002.9 |
| 20260508215034 | 18 | 263 | 14.5 | 37.0 | 0.00 | 0.00 | 0.00 | 32 | 1002.9 |
| 20260508214535 | 18 | 323 | 20.9 | 37.0 | 0.00 | 0.00 | 0.00 | 32 | 1003.0 |
| 20260508214033 | 18 | 272 | 16.1 | 38.6 | 0.00 | 0.00 | 0.00 | 33 | 1003.0 |
| 20260508213533 | 18 | 279 | 19.3 | 38.6 | 0.00 | 0.00 | 0.00 | 32 | 1003.1 |
| 20260508213039 | 18 | 253 | 17.7 | 40.2 | 0.00 | 0.00 | 0.00 | 32 | 1003.0 |
| 20260508212535 | 18 | 26 | 22.5 | 40.2 | 0.00 | 0.00 | 0.00 | 31 | 1003.0 |
| 20260508212032 | 18 | 315 | 17.7 | 38.6 | 0.00 | 0.00 | 0.00 | 33 | 1003.0 |
| 20260508211537 | 18 | 5 | 20.9 | 38.6 | 0.00 | 0.00 | 0.00 | 32 | 1003.0 |
| 20260508211034 | 18 | 213 | 19.3 | 41.8 | 0.00 | 0.00 | 0.00 | 32 | 1002.9 |
| 20260508210532 | 18 | 272 | 22.5 | 41.8 | 0.00 | 0.00 | 0.00 | 32 | 1003.0 |
| 20260508210031 | 18 | 325 | 24.1 | 40.2 | 0.00 | 0.00 | 0.00 | 32 | 1002.9 |
| 20260508205530 | 18 | 278 | 17.7 | 38.6 | 0.00 | 0.00 | 0.00 | 31 | 1003.0 |
| 20260508205030 | 18 | 327 | 17.7 | 38.6 | 0.00 | 0.00 | 0.00 | 32 | 1002.8 |
| 20260508204531 | 18 | 346 | 17.7 | 37.0 | 0.00 | 0.00 | 0.00 | 32 | 1002.8 |
| 20260508204032 | 18 | 325 | 16.1 | 46.7 | 0.00 | 0.00 | 0.00 | 31 | 1002.9 |
| 20260508203529 | 18 | 336 | 24.1 | 46.7 | 0.00 | 0.00 | 0.00 | 31 | 1002.9 |
| 20260508203035 | 18 | 323 | 25.7 | 46.7 | 0.00 | 0.00 | 0.00 | 33 | 1002.9 |
| 20260508202531 | 18 | 320 | 24.1 | 49.9 | 0.00 | 0.00 | 0.00 | 32 | 1002.9 |
| 20260508202029 | 18 | 355 | 29.0 | 49.9 | 0.00 | 0.00 | 0.00 | 32 | 1002.8 |
| 20260508201529 | 18 | 284 | 24.1 | 43.5 | 0.00 | 0.00 | 0.00 | 32 | 1002.8 |
| 20260508201028 | 18 | 321 | 24.1 | 45.1 | 0.00 | 0.00 | 0.00 | 31 | 1002.8 |
| 20260508200528 | 18 | 329 | 19.3 | 45.1 | 0.00 | 0.00 | 0.00 | 32 | 1002.8 |
| 20260508200117 | 18 | 311 | 24.1 | 38.6 | 0.00 | 0.00 | 0.00 | 32 | 1002.8 |
| 20260508195022 | 18 | 310 | 25.7 | 48.3 | 0.00 | 0.00 | 0.00 | 31 | 1002.8 |
| 20260508194530 | 18 | 296 | 24.1 | 54.7 | 0.00 | 0.00 | 0.00 | 32 | 1002.7 |
| 20260508194020 | 18 | 294 | 29.0 | 54.7 | 0.00 | 0.00 | 0.00 | 32 | 1002.7 |
| 20260508193520 | 18 | 290 | 11.3 | 41.8 | 0.00 | 0.00 | 0.00 | 32 | 1002.7 |
| 20260508193019 | 18 | 334 | 22.5 | 56.3 | 0.00 | 0.00 | 0.00 | 32 | 1002.7 |
| 20260508192521 | 18 | 290 | 17.7 | 56.3 | 0.00 | 0.00 | 0.00 | 31 | 1002.8 |
| 20260508192020 | 18 | 315 | 19.3 | 41.8 | 0.00 | 0.00 | 0.00 | 34 | 1002.6 |
| 20260508191526 | 18 | 312 | 20.9 | 41.8 | 0.00 | 0.00 | 0.00 | 34 | 1002.8 |
| 20260508191018 | 18 | 221 | 12.9 | 38.6 | 0.00 | 0.00 | 0.00 | 34 | 1002.7 |
| 20260508190518 | 18 | 231 | 17.7 | 46.7 | 0.00 | 0.00 | 0.00 | 34 | 1002.8 |
| 20260508190018 | 18 | 157 | 20.9 | 46.7 | 0.00 | 0.00 | 0.00 | 34 | 1002.7 |
| 20260508185517 | 18 | 342 | 20.9 | 45.1 | 0.00 | 0.00 | 0.00 | 33 | 1002.7 |
| 20260508185019 | 18 | 319 | 19.3 | 33.8 | 0.00 | 0.00 | 0.00 | 34 | 1002.6 |
| 20260508184518 | 19 | 334 | 19.3 | 35.4 | 0.00 | 0.00 | 0.00 | 32 | 1002.7 |
| 20260508184016 | 19 | 348 | 12.9 | 35.4 | 0.00 | 0.00 | 0.00 | 30 | 1002.5 |
| 20260508183517 | 19 | 278 | 16.1 | 46.7 | 0.00 | 0.00 | 0.00 | 29 | 1002.5 |
| 20260508183023 | 19 | 338 | 17.7 | 46.7 | 0.00 | 0.00 | 0.00 | 28 | 1002.4 |
| 20260508182517 | 19 | 297 | 14.5 | 45.1 | 0.00 | 0.00 | 0.00 | 28 | 1002.5 |
| 20260508182015 | 19 | 308 | 17.7 | 45.1 | 0.00 | 0.00 | 0.00 | 28 | 1002.5 |
| 20260508181514 | 19 | 260 | 11.3 | 33.8 | 0.00 | 0.00 | 0.00 | 28 | 1002.4 |
| 20260508181017 | 20 | 248 | 16.1 | 38.6 | 0.00 | 0.00 | 0.00 | 26 | 1002.5 |
| 20260508180514 | 19 | 302 | 14.5 | 38.6 | 0.00 | 0.00 | 0.00 | 28 | 1002.5 |